[[{"header":{"parameterUnit":"m.s-1","parameterCategory":1,"la1":30.2991,"la2":30.254,"lo1":-89.0895,"lo2":-89.0444,"dy":0.0017,"dx":0.0017,"nx":28,"ny":28,"refTime":"2025-04-19T21:00:00:Z","depth":0,"parameterNumber":2,"parameterNumberName":"U-component_of_WINDS"},"data":[0,0,0,0,0,0,0,0,0,0,0,0,0,0,0,0,0,0,0,0,0,0,0,0,0,0,0,0,0,0,0,0,0,0,0,0,0,0,0,0,0,0,0,0,0,0,0,0,0,0,0,0,0,0,0,0,0,0,-4.1566,-4.1567,0,-4.1632,-4.1633,-4.1634,-4.1611,-4.1609,-4.1608,-4.1607,-4.1673,-4.1676,-4.168,0,0,0,0,0,0,0,0,0,0,0,0,0,-4.1419,-4.1421,-4.1566,-4.1567,-4.1568,-4.1632,-4.1633,-4.1634,-4.1611,-4.1609,-4.1608,-4.1606,-4.1672,-4.1676,-4.168,0,0,0,0,0,0,0,0,0,0,0,0,0,-4.1484,-4.1422,-4.1566,-4.1564,-4.1564,-4.1632,-4.1633,-4.1634,-4.1612,-4.1609,-4.1607,-4.1605,-4.1671,-4.1676,-4.168,-4.1753,0,0,-4.1695,-4.1697,0,0,0,0,0,0,0,0,-4.148,-4.1489,-4.1563,-4.1564,-4.1565,-4.1611,-4.1606,-4.1674,-4.1612,-4.1594,-4.1607,-4.1604,-4.1654,-4.166,-4.1678,-4.1757,-4.1759,-4.1695,-4.1698,-4.17,-4.1701,0,0,0,0,0,0,0,-4.1475,-4.1486,-4.1592,-4.1564,-4.1565,-4.156,-4.1566,-4.1619,-4.1635,-4.1595,-4.1594,-4.1602,-4.1654,-4.1673,-4.1679,-4.176,-4.1695,-4.1699,-4.1702,-4.1704,-4.1903,-4.1906,0,0,0,0,0,0,-4.1471,-4.1482,-4.159,-4.1594,-4.1516,-4.1564,-4.1572,-4.1598,-4.1635,-4.1638,-4.1604,-4.16,-4.1666,-4.1673,-4.1681,-4.1769,-4.17,-4.1704,-4.1707,-4.1901,-4.1904,-4.1907,0,0,0,0,0,0,-4.1468,-4.148,-4.1587,-4.1538,-4.1551,-4.1569,-4.1599,-4.1601,-4.162,-4.1641,-4.1644,-4.162,-4.1665,-4.1675,-4.1736,-4.1771,-4.1707,-4.1711,-4.1898,-4.1902,-4.1905,-4.1945,0,0,0,0,0,0,-4.1463,-4.1479,-4.1507,-4.1539,-4.1554,-4.1641,-4.1601,-4.1604,-4.1628,-4.1624,-4.1657,-4.166,-4.1664,-4.1729,-4.1741,-4.1776,-4.1714,-4.1895,-4.19,-4.1904,-4.1941,-4.195,-4.1957,0,0,0,0,0,-4.1458,-4.1515,-4.1509,-4.1522,-4.1589,-4.1643,-4.1651,-4.1654,-4.1631,-4.1659,-4.1673,-4.1659,-4.1766,-4.1735,-4.1748,-4.1786,-4.1893,-4.1898,-4.1904,-4.1937,-4.1948,-4.1957,0,0,0,0,0,0,-4.1486,-4.1519,-4.1512,-4.1581,-4.161,-4.1639,-4.1674,-4.1666,-4.1701,-4.1696,-4.1698,-4.1706,-4.1769,-4.1784,-4.1749,-4.1859,-4.1826,-4.1834,-4.1846,-4.1857,-4.1865,-4.186,-4.1718,0,0,0,0,0,-4.1501,-4.1542,-4.1569,-4.1627,-4.1642,-4.1656,-4.1679,-4.168,-4.1709,-4.172,-4.1739,-4.1767,-4.1807,-4.1833,-4.1871,-4.1944,-4.195,-4.1976,-4.1985,-4.1991,-4.1998,-4.2037,-4.2049,-4.1925,-4.1925,-4.1925,0,0,-4.153,-4.1554,-4.1579,-4.1633,-4.1655,-4.1698,-4.1666,-4.1712,-4.1744,-4.1727,-4.1786,-4.1801,-4.1833,-4.19,-4.1931,-4.1915,-4.2034,-4.1998,-4.2004,-4.2007,-4.2044,-4.2056,-4.2066,-4.1929,-4.1928,-4.1927,0,0,-4.1606,-4.1628,-4.1679,-4.1702,-4.1737,-4.1746,-4.1758,-4.179,-4.1799,-4.1859,-4.1847,-4.1885,-4.1954,-4.1977,-4.1998,-4.2086,-4.2074,-4.2098,-4.2141,-4.218,-4.2189,-4.2198,-4.2228,-4.2239,-4.2105,-4.2105,-4.2105,0,-4.1638,-4.1702,-4.1706,-4.1754,-4.1778,-4.1767,-4.1819,-4.1841,-4.1885,-4.1902,-4.1884,-4.1971,-4.1992,-4.2064,-4.2086,-4.2103,-4.2117,-4.2093,-4.2188,-4.2196,-4.2205,-4.2234,-4.2245,-4.2108,-4.2108,-4.2107,-4.2107,0,-4.174,-4.1785,-4.1822,-4.1866,-4.1895,-4.1944,-4.1956,-4.1985,-4.1983,-4.1995,-4.2056,-4.2081,-4.2124,-4.2142,-4.214,-4.2215,-4.2204,-4.2187,-4.2153,-4.2219,-4.2246,-4.2257,-4.2112,-4.2111,-4.211,-4.2109,0,0,-4.1832,-4.188,-4.1893,-4.1914,-4.1952,-4.1986,-4.2036,-4.2079,-4.2103,-4.2135,-4.2176,-4.2236,-4.2221,-4.2245,-4.2247,-4.2281,-4.2348,-4.226,-4.226,-4.2274,-4.2431,-4.2442,-4.2454,-4.2342,-4.2344,-4.2345,-4.2428,0,-4.191,-4.1997,-4.2003,-4.2081,-4.2123,-4.2114,-4.2158,-4.2186,-4.2198,-4.2235,-4.2249,-4.2291,-4.2269,-4.2283,-4.2317,-4.2332,-4.2379,-4.2327,-4.2379,-4.2381,-4.2369,-4.2469,-4.248,-4.2557,-4.2438,-4.244,-4.2441,0,-4.2011,-4.2047,-4.213,-4.2163,-4.2181,-4.222,-4.226,-4.2296,-4.2328,-4.2335,-4.2363,-4.236,-4.2411,-4.2378,-4.2448,-4.2412,-4.2435,-4.2446,-4.2449,-4.2452,-4.2413,-4.2473,-4.2581,-4.2592,-4.2458,-4.2457,-4.2456,0,-4.2069,-4.2138,-4.2197,-4.2215,-4.2255,-4.2283,-4.2301,-4.2331,-4.2357,-4.2392,-4.2409,-4.245,-4.2472,-4.2504,-4.2513,-4.2488,-4.2583,-4.255,-4.259,-4.2589,-4.2608,-4.2606,-4.2719,-4.2626,-4.2625,-4.2625,-4.2625,0,-4.2154,-4.2204,-4.2223,-4.2259,-4.2316,-4.2324,-4.238,-4.2396,-4.2424,-4.2462,-4.2458,-4.2495,-4.2505,-4.2544,-4.2551,-4.2608,-4.2618,-4.2625,-4.2626,-4.2624,-4.2623,-4.2637,-4.2631,-4.2628,-4.2627,-4.2627,-4.2626,0,-4.2226,-4.2241,-4.2304,-4.2339,-4.2348,-4.2389,-4.2418,-4.2452,-4.2466,-4.2515,-4.2527,-4.2547,-4.2593,-4.2606,-4.266,-4.2665,-4.2731,-4.2728,-4.272,-4.272,-4.2758,-4.2754,-4.2882,-4.2899,-4.2796,-4.2797,-4.2798,0,-4.2278,-4.2317,-4.2356,-4.2383,-4.2402,-4.2444,-4.2471,-4.2481,-4.2509,-4.255,-4.2579,-4.2624,-4.2661,-4.2734,-4.2753,-4.2795,-4.2792,-4.2834,-4.2798,-4.2795,-4.2791,-4.2788,-4.2792,-4.284,-4.2841,-4.2842,-4.2843,0,-4.2369,-4.2375,-4.2414,-4.2456,-4.2489,-4.2522,-4.2554,-4.2576,-4.2591,-4.2623,-4.2669,-4.2698,-4.2754,-4.2799,-4.2841,-4.286,-4.2854,-4.2855,-4.2866,-4.2863,-4.2857,-4.286,-4.2737,-4.2851,-4.285,-4.285,-4.2849,-4.2849,-4.2432,-4.2467,-4.25,-4.2544,-4.257,-4.26,-4.2634,-4.2653,-4.2692,-4.2739,-4.2743,-4.2793,-4.2826,-4.2883,-4.2904,-4.2944,-4.2931,-4.2947,-4.2951,-4.2955,-4.2957,-4.2852,-4.2952,-4.2951,-4.2951,-4.2951,-4.2951,0,-4.2522,-4.2543,-4.2584,-4.263,-4.2664,-4.2658,-4.2693,-4.2723,-4.2767,-4.2799,-4.2835,-4.2889,-4.2933,-4.2957,-4.3001,-4.3028,-4.3026,-4.3039,-4.3036,-4.304,-4.2967,-4.2952,-4.304,-4.304,-4.304,-4.304,-4.304,-4.304,-4.2572,-4.263,-4.264,-4.2711,-4.2733,-4.2782,-4.2804,-4.2832,-4.2857,-4.2918,-4.2955,-4.297,-4.2999,-4.3045,-4.3085,-4.3091,-4.3107,-4.3121,-4.3125,-4.3055,-4.3046,-4.3037,-4.3023,-4.3124,-4.3125,-4.3195,-4.3196,-4.3197]},{"header":{"parameterUnit":"m.s-1","parameterCategory":1,"la1":30.2991,"la2":30.254,"lo1":-89.0895,"lo2":-89.0444,"dy":0.0017,"dx":0.0017,"nx":28,"ny":28,"refTime":"2025-04-19T21:00:00:Z","depth":0,"parameterNumber":3,"parameterNumberName":"V-component_of_WINDS"},"data":[0,0,0,0,0,0,0,0,0,0,0,0,0,0,0,0,0,0,0,0,0,0,0,0,0,0,0,0,0,0,0,0,0,0,0,0,0,0,0,0,0,0,0,0,0,0,0,0,0,0,0,0,0,0,0,0,0,0,4.0077,4.0077,0,4.0125,4.0126,4.0127,4.0136,4.0135,4.0135,4.0135,4.0181,4.0182,4.0184,0,0,0,0,0,0,0,0,0,0,0,0,0,3.9989,3.9991,4.0077,4.0077,4.0078,4.0125,4.0126,4.0127,4.0136,4.0135,4.0135,4.0134,4.018,4.0182,4.0184,0,0,0,0,0,0,0,0,0,0,0,0,0,4.0031,3.9991,4.0077,4.0088,4.009,4.0125,4.0126,4.0127,4.0136,4.0135,4.0135,4.0134,4.0179,4.0182,4.0184,4.021,0,0,4.0191,4.0192,0,0,0,0,0,0,0,0,4.0029,4.0035,4.0086,4.0088,4.0089,4.0124,4.0112,4.0155,4.0136,4.0118,4.0135,4.0134,4.0162,4.0166,4.0176,4.0212,4.0214,4.0191,4.0193,4.0194,4.0195,0,0,0,0,0,0,0,4.0026,4.0032,4.0096,4.0087,4.0089,4.009,4.0096,4.012,4.0143,4.012,4.0121,4.0126,4.0163,4.0174,4.0177,4.0215,4.0191,4.0194,4.0195,4.0196,4.0277,4.0277,0,0,0,0,0,0,4.0021,4.003,4.0094,4.0097,4.0057,4.0092,4.0098,4.0113,4.0142,4.0146,4.0127,4.0127,4.017,4.0174,4.0179,4.0213,4.0194,4.0196,4.0197,4.0276,4.0277,4.0278,0,0,0,0,0,0,4.002,4.0027,4.0092,4.0064,4.0072,4.0095,4.0111,4.0115,4.0126,4.0148,4.0152,4.0134,4.017,4.0175,4.0203,4.0214,4.0197,4.0199,4.0275,4.0276,4.0277,4.028,0,0,0,0,0,0,4.0017,4.0026,4.0037,4.0064,4.0074,4.0116,4.0112,4.0116,4.013,4.013,4.0156,4.0159,4.017,4.0199,4.0205,4.0217,4.0201,4.0274,4.0276,4.0277,4.0279,4.0281,4.0282,0,0,0,0,0,4.0014,4.0034,4.0037,4.0045,4.0088,4.0117,4.0123,4.0135,4.0131,4.0142,4.0156,4.0158,4.0212,4.0202,4.0209,4.0222,4.0274,4.0275,4.0277,4.0278,4.028,4.0282,0,0,0,0,0,0,4.0006,4.0038,4.0042,4.0072,4.0092,4.0119,4.0132,4.0137,4.0158,4.0157,4.0171,4.0176,4.0203,4.0215,4.0203,4.0249,4.0242,4.0245,4.0241,4.0243,4.0245,4.0242,4.0203,0,0,0,0,0,4.0008,4.003,4.0056,4.008,4.0091,4.011,4.0123,4.0131,4.0152,4.016,4.0176,4.0196,4.0217,4.0231,4.0251,4.028,4.0287,4.0293,4.0294,4.0296,4.0299,4.0316,4.032,4.0283,4.0283,4.0283,0,0,4.0011,4.0032,4.0045,4.0079,4.0096,4.0118,4.0117,4.014,4.0156,4.0163,4.0191,4.0204,4.0226,4.0255,4.0268,4.0266,4.031,4.0298,4.0299,4.0301,4.0319,4.0322,4.0325,4.0284,4.0284,4.0284,0,0,4.003,4.0048,4.0071,4.0088,4.0114,4.0127,4.0132,4.0159,4.0168,4.0197,4.0203,4.0222,4.0258,4.0275,4.0288,4.0315,4.0318,4.0321,4.0331,4.0348,4.0351,4.0354,4.0365,4.0369,4.0323,4.0323,4.0323,0,4.0031,4.0066,4.0081,4.0105,4.0121,4.013,4.0153,4.0169,4.0199,4.0209,4.0206,4.0253,4.0269,4.0302,4.0309,4.0319,4.0326,4.0318,4.035,4.0353,4.0355,4.0366,4.037,4.0324,4.0324,4.0324,4.0324,0,4.0067,4.0091,4.0107,4.0139,4.0156,4.0179,4.0197,4.0212,4.0219,4.0233,4.0262,4.0281,4.0307,4.0316,4.0322,4.0351,4.0349,4.0347,4.0341,4.0359,4.037,4.0374,4.0324,4.0324,4.0324,4.0324,0,0,4.0081,4.0123,4.0129,4.0144,4.0174,4.0193,4.0217,4.0244,4.0257,4.0278,4.0299,4.033,4.033,4.0345,4.0353,4.0368,4.0391,4.0365,4.0366,4.0371,4.0426,4.0427,4.0432,4.0393,4.0394,4.0394,4.0424,0,4.0105,4.015,4.0165,4.0202,4.0225,4.0235,4.0256,4.0276,4.029,4.0311,4.0325,4.0348,4.0345,4.0354,4.0369,4.0385,4.0402,4.0383,4.0413,4.0413,4.0408,4.0437,4.0438,4.0465,4.0428,4.0429,4.0429,0,4.0138,4.0162,4.0202,4.0232,4.0242,4.0261,4.0288,4.0308,4.0331,4.034,4.0358,4.0365,4.0391,4.0383,4.0418,4.0405,4.0418,4.0427,4.0429,4.0432,4.0423,4.0443,4.0474,4.0479,4.0436,4.0435,4.0435,0,4.0146,4.0188,4.0219,4.0231,4.0266,4.0279,4.0294,4.0317,4.0333,4.0356,4.0367,4.0392,4.0405,4.0425,4.0439,4.0431,4.0474,4.0466,4.0482,4.0482,4.0491,4.049,4.0526,4.0497,4.0497,4.0497,4.0497,0,4.0171,4.0196,4.0223,4.0242,4.027,4.0286,4.0313,4.0328,4.0349,4.0371,4.038,4.0399,4.0417,4.0439,4.045,4.0478,4.0484,4.0492,4.0495,4.0492,4.0491,4.0501,4.05,4.0498,4.0498,4.0498,4.0498,0,4.0185,4.0205,4.0239,4.0269,4.0278,4.0297,4.0323,4.0341,4.0356,4.0383,4.039,4.0412,4.0439,4.0455,4.0487,4.0495,4.0527,4.0528,4.052,4.0521,4.0537,4.0536,4.0581,4.0589,4.0554,4.0554,4.0554,0,4.0201,4.022,4.0254,4.027,4.0286,4.0311,4.0328,4.0345,4.0362,4.0392,4.0407,4.0435,4.0458,4.0499,4.0518,4.0544,4.0546,4.0561,4.055,4.0547,4.0548,4.0548,4.055,4.0563,4.0563,4.0563,4.0563,0,4.0226,4.0236,4.0261,4.029,4.0311,4.0334,4.0357,4.0369,4.039,4.0409,4.0438,4.0456,4.0491,4.0518,4.0546,4.056,4.0566,4.0567,4.0572,4.0569,4.0564,4.0569,4.0526,4.0565,4.0565,4.0565,4.0565,4.0565,4.0242,4.0261,4.0289,4.0317,4.0337,4.0358,4.0378,4.0396,4.042,4.0452,4.046,4.049,4.0514,4.0552,4.0568,4.0591,4.0589,4.0596,4.0598,4.06,4.0601,4.056,4.0596,4.0596,4.0596,4.0596,4.0596,0,4.027,4.0289,4.0314,4.0348,4.037,4.0375,4.0401,4.0419,4.0446,4.0469,4.0493,4.0526,4.0553,4.0575,4.0603,4.0618,4.0621,4.0624,4.0624,4.0627,4.0601,4.0594,4.0621,4.0621,4.0621,4.0621,4.0621,4.0621,4.0287,4.0319,4.0332,4.0375,4.0393,4.0424,4.0439,4.0459,4.0478,4.0516,4.0539,4.0554,4.0576,4.0606,4.0632,4.0637,4.0648,4.0651,4.0657,4.0632,4.0629,4.0626,4.062,4.0653,4.0653,4.0682,4.0683,4.0683]}]]